YMA7489 SBMN-SBSN

Flight info

Callsign YMA7489
Flight time 0h 49m
Altitude 31000
Route SBMN DOLTI UZ81 TOBUX SBSN
Aircraft B738/M-VGDW/C

Departure

Time 2026-05-09 09:17
Airport Ponta Pelada Airport / Manaus Air Base (SBMN)

Arrival

Time 2026-05-09 10:07
Airport Santarém - Maestro Wilson Fonseca International Airport (SBSN)
Time Latitude Longitude Altitude Speed Heading
2026-05-09 08:45 -3.14540 -59.99181 260 ft 0 kts 165°
2026-05-09 09:15 -3.14557 -59.99177 260 ft 13 kts 165°
2026-05-09 09:15 -3.14653 -59.99209 260 ft 12 kts 249°
2026-05-09 09:15 -3.14655 -59.99296 260 ft 14 kts 254°
2026-05-09 09:16 -3.14690 -59.99397 260 ft 17 kts 259°
2026-05-09 09:16 -3.14781 -59.99600 260 ft 14 kts 213°
2026-05-09 09:16 -3.14842 -59.99620 260 ft 0 kts 146°
2026-05-09 09:17 -3.14842 -59.99589 260 ft 8 kts 74°
2026-05-09 09:17 -3.14754 -59.99242 261 ft 105 kts 77°
2026-05-09 09:17 -3.14493 -59.98212 260 ft 195 kts 76°
2026-05-09 09:17 -3.14175 -59.96814 1177 ft 200 kts 78°
2026-05-09 09:18 -3.13908 -59.95384 1917 ft 229 kts 80°
2026-05-09 09:18 -3.13626 -59.93714 2468 ft 252 kts 80°
2026-05-09 09:18 -3.13323 -59.91961 3004 ft 258 kts 80°
2026-05-09 09:18 -3.13018 -59.90174 3560 ft 263 kts 80°
2026-05-09 09:19 -3.12712 -59.88361 3998 ft 259 kts 81°
2026-05-09 09:19 -3.12410 -59.86636 4554 ft 248 kts 80°
2026-05-09 09:19 -3.12097 -59.84906 5136 ft 256 kts 80°
2026-05-09 09:19 -3.11779 -59.83143 5724 ft 258 kts 80°
2026-05-09 09:20 -3.11455 -59.81360 6328 ft 262 kts 80°
2026-05-09 09:20 -3.11125 -59.79583 6867 ft 264 kts 80°
2026-05-09 09:20 -3.10788 -59.77765 7440 ft 268 kts 80°
2026-05-09 09:20 -3.10468 -59.75917 8006 ft 271 kts 81°
2026-05-09 09:21 -3.10157 -59.74040 8596 ft 275 kts 81°
2026-05-09 09:21 -3.09840 -59.72145 9188 ft 278 kts 81°
2026-05-09 09:21 -3.09517 -59.70218 9800 ft 282 kts 81°
2026-05-09 09:21 -3.09192 -59.68270 10352 ft 288 kts 81°
2026-05-09 09:22 -3.08854 -59.66244 10902 ft 302 kts 81°
2026-05-09 09:22 -3.08501 -59.64127 11438 ft 315 kts 81°
2026-05-09 09:22 -3.08135 -59.61924 11973 ft 327 kts 81°
2026-05-09 09:22 -3.07760 -59.59668 12509 ft 337 kts 81°
2026-05-09 09:23 -3.07368 -59.57311 13068 ft 348 kts 81°
2026-05-09 09:23 -3.06965 -59.54883 13623 ft 358 kts 81°
2026-05-09 09:23 -3.06553 -59.52405 14082 ft 361 kts 81°
2026-05-09 09:23 -3.06139 -59.49914 14537 ft 364 kts 81°
2026-05-09 09:24 -3.05723 -59.47401 15000 ft 367 kts 81°
2026-05-09 09:24 -3.05311 -59.44871 15461 ft 370 kts 81°
2026-05-09 09:24 -3.04901 -59.42353 15908 ft 372 kts 81°
2026-05-09 09:24 -3.04465 -59.39782 16355 ft 375 kts 80°
2026-05-09 09:25 -3.04000 -59.37194 16798 ft 378 kts 80°
2026-05-09 09:25 -3.03538 -59.34600 17232 ft 380 kts 80°
2026-05-09 09:25 -3.03075 -59.31980 17665 ft 383 kts 80°
2026-05-09 09:25 -3.02613 -59.29379 18092 ft 385 kts 79°
2026-05-09 09:26 -3.02145 -59.26730 18482 ft 388 kts 80°
2026-05-09 09:26 -3.01678 -59.24067 18890 ft 390 kts 80°
2026-05-09 09:26 -3.01217 -59.21380 19298 ft 393 kts 81°
2026-05-09 09:26 -3.00784 -59.18667 19709 ft 396 kts 81°
2026-05-09 09:27 -3.00349 -59.15930 20129 ft 399 kts 81°
2026-05-09 09:27 -2.99911 -59.13179 20530 ft 402 kts 81°
2026-05-09 09:27 -2.99437 -59.10408 20937 ft 404 kts 80°
2026-05-09 09:27 -2.98938 -59.07624 21334 ft 407 kts 79°
2026-05-09 09:28 -2.98437 -59.04827 21731 ft 410 kts 79°
2026-05-09 09:28 -2.97932 -59.02009 22133 ft 413 kts 79°
2026-05-09 09:28 -2.97443 -58.99165 22512 ft 416 kts 81°
2026-05-09 09:28 -2.96984 -58.96337 22891 ft 419 kts 81°
2026-05-09 09:29 -2.96514 -58.93440 23279 ft 422 kts 81°
2026-05-09 09:29 -2.96042 -58.90528 23639 ft 425 kts 81°
2026-05-09 09:29 -2.95567 -58.87602 23981 ft 427 kts 81°
2026-05-09 09:29 -2.95086 -58.84645 24332 ft 431 kts 81°
2026-05-09 09:30 -2.94597 -58.81673 24691 ft 435 kts 80°
2026-05-09 09:30 -2.94061 -58.78682 25046 ft 438 kts 79°
2026-05-09 09:30 -2.93508 -58.75668 25409 ft 442 kts 79°
2026-05-09 09:30 -2.92963 -58.72625 25769 ft 446 kts 80°
2026-05-09 09:31 -2.92456 -58.69592 26120 ft 449 kts 81°
2026-05-09 09:31 -2.91944 -58.66495 26469 ft 452 kts 81°
2026-05-09 09:31 -2.91427 -58.63377 26829 ft 455 kts 81°
2026-05-09 09:32 -2.90381 -58.57087 28775 ft 459 kts 81°
2026-05-09 09:32 -2.89859 -58.53948 29036 ft 454 kts 81°
2026-05-09 09:32 -2.89335 -58.50837 29281 ft 452 kts 80°
2026-05-09 09:32 -2.88774 -58.47734 29531 ft 455 kts 79°
2026-05-09 09:33 -2.88203 -58.44648 29779 ft 458 kts 79°
2026-05-09 09:33 -2.87628 -58.41502 30030 ft 461 kts 80°
2026-05-09 09:33 -2.87088 -58.38335 30281 ft 462 kts 80°
2026-05-09 09:33 -2.86557 -58.35158 30537 ft 463 kts 80°
2026-05-09 09:34 -2.86022 -58.31973 30781 ft 465 kts 80°
2026-05-09 09:34 -2.85482 -58.28776 30971 ft 468 kts 80°
2026-05-09 09:34 -2.84936 -58.25538 30996 ft 472 kts 80°
2026-05-09 09:36 -2.80570 -57.99828 31000 ft 469 kts 80°
2026-05-09 09:37 -2.79661 -57.94488 31000 ft 468 kts 80°
2026-05-09 09:37 -2.78291 -57.87041 31000 ft 468 kts 79°
2026-05-09 09:38 -2.77565 -57.81671 31001 ft 468 kts 84°
2026-05-09 09:38 -2.76913 -57.75198 31000 ft 468 kts 84°
2026-05-09 09:39 -2.76234 -57.68716 31000 ft 468 kts 83°
2026-05-09 09:39 -2.75461 -57.62248 31000 ft 468 kts 83°
2026-05-09 09:40 -2.74685 -57.55787 31000 ft 468 kts 83°
2026-05-09 09:40 -2.73961 -57.49313 31000 ft 468 kts 84°
2026-05-09 09:41 -2.73294 -57.42876 30999 ft 468 kts 84°
2026-05-09 09:41 -2.72523 -57.36406 31000 ft 468 kts 83°
2026-05-09 09:42 -2.71734 -57.29932 31000 ft 468 kts 83°
2026-05-09 09:42 -2.71008 -57.23457 31000 ft 468 kts 84°
2026-05-09 09:43 -2.70330 -57.17017 31000 ft 468 kts 84°
2026-05-09 09:43 -2.69562 -57.10544 30999 ft 468 kts 83°
2026-05-09 09:44 -2.68765 -57.04075 31000 ft 468 kts 83°
2026-05-09 09:44 -2.68059 -56.97603 30999 ft 468 kts 84°
2026-05-09 09:45 -2.67369 -56.91123 31000 ft 468 kts 84°
2026-05-09 09:45 -2.66595 -56.84699 31000 ft 468 kts 83°
2026-05-09 09:46 -2.65801 -56.78235 30999 ft 468 kts 83°
2026-05-09 09:46 -2.65095 -56.71755 31000 ft 468 kts 84°
2026-05-09 09:47 -2.64390 -56.65280 31000 ft 468 kts 84°
2026-05-09 09:47 -2.63638 -56.58802 31000 ft 468 kts 83°
2026-05-09 09:48 -2.62818 -56.52373 31000 ft 469 kts 83°
2026-05-09 09:48 -2.62080 -56.45886 31000 ft 469 kts 84°
2026-05-09 09:49 -2.61361 -56.39391 30999 ft 469 kts 83°
2026-05-09 09:49 -2.60644 -56.32948 30999 ft 469 kts 83°
2026-05-09 09:50 -2.59877 -56.26461 31000 ft 469 kts 82°
2026-05-09 09:50 -2.59103 -56.19985 30999 ft 469 kts 83°
2026-05-09 09:51 -2.58373 -56.13504 30999 ft 469 kts 83°
2026-05-09 09:51 -2.57633 -56.07023 31000 ft 469 kts 83°
2026-05-09 09:52 -2.56896 -56.00534 31000 ft 469 kts 83°
2026-05-09 09:52 -2.56159 -55.94098 30999 ft 469 kts 83°
2026-05-09 09:53 -2.55411 -55.87610 30642 ft 474 kts 84°
2026-05-09 09:53 -2.55029 -55.84336 29085 ft 477 kts 83°
2026-05-09 09:53 -2.54652 -55.81032 27937 ft 473 kts 83°
2026-05-09 09:53 -2.54285 -55.77807 27140 ft 459 kts 83°
2026-05-09 09:54 -2.53919 -55.74690 25627 ft 453 kts 83°
2026-05-09 09:54 -2.53561 -55.71565 24524 ft 448 kts 83°
2026-05-09 09:54 -2.53216 -55.68511 23094 ft 441 kts 83°
2026-05-09 09:54 -2.52865 -55.65475 21953 ft 436 kts 83°
2026-05-09 09:55 -2.52519 -55.62515 21021 ft 412 kts 83°
2026-05-09 09:55 -2.52178 -55.59604 19541 ft 423 kts 83°
2026-05-09 09:55 -2.51845 -55.56761 18298 ft 408 kts 82°
2026-05-09 09:55 -2.51514 -55.53934 17178 ft 401 kts 83°
2026-05-09 09:56 -2.51203 -55.51282 16330 ft 362 kts 83°
2026-05-09 09:56 -2.50916 -55.48896 15708 ft 333 kts 84°
2026-05-09 09:56 -2.50665 -55.46619 14270 ft 332 kts 83°
2026-05-09 09:56 -2.50406 -55.44392 13603 ft 304 kts 82°
2026-05-09 09:57 -2.50149 -55.42212 12298 ft 318 kts 83°
2026-05-09 09:57 -2.49897 -55.40065 11195 ft 311 kts 83°
2026-05-09 09:57 -2.49653 -55.37973 10860 ft 290 kts 83°
2026-05-09 09:57 -2.49444 -55.36038 10612 ft 281 kts 84°
2026-05-09 09:58 -2.49243 -55.34011 10339 ft 298 kts 84°
2026-05-09 09:58 -2.49040 -55.31988 9996 ft 287 kts 84°
2026-05-09 09:58 -2.48837 -55.29989 9699 ft 294 kts 84°
2026-05-09 09:58 -2.48623 -55.27971 9374 ft 287 kts 83°
2026-05-09 09:59 -2.48391 -55.26022 9072 ft 278 kts 83°
2026-05-09 09:59 -2.48169 -55.24146 8756 ft 268 kts 83°
2026-05-09 09:59 -2.47956 -55.22340 8472 ft 254 kts 83°
2026-05-09 09:59 -2.47754 -55.20612 8171 ft 245 kts 83°
2026-05-09 10:00 -2.47556 -55.18947 7921 ft 260 kts 83°
2026-05-09 10:00 -2.47329 -55.17037 7619 ft 277 kts 83°
2026-05-09 10:00 -2.47124 -55.15161 7281 ft 266 kts 84°
2026-05-09 10:00 -2.46944 -55.13356 6960 ft 256 kts 84°
2026-05-09 10:01 -2.46765 -55.11608 6658 ft 249 kts 84°
2026-05-09 10:01 -2.46590 -55.09902 6407 ft 244 kts 84°
2026-05-09 10:01 -2.46419 -55.08220 6160 ft 242 kts 84°
2026-05-09 10:01 -2.46242 -55.06554 5907 ft 240 kts 83°
2026-05-09 10:02 -2.46043 -55.04897 5646 ft 239 kts 83°
2026-05-09 10:02 -2.45847 -55.03251 5384 ft 238 kts 83°
2026-05-09 10:02 -2.45653 -55.01618 5122 ft 234 kts 83°
2026-05-09 10:02 -2.45462 -55.00024 4861 ft 228 kts 83°
2026-05-09 10:03 -2.45278 -54.98479 4597 ft 217 kts 83°
2026-05-09 10:03 -2.45128 -54.97027 4350 ft 209 kts 84°
2026-05-09 10:03 -2.44925 -54.95565 4115 ft 220 kts 81°
2026-05-09 10:03 -2.44690 -54.94075 3851 ft 213 kts 81°
2026-05-09 10:04 -2.44467 -54.92635 3583 ft 206 kts 81°
2026-05-09 10:04 -2.44252 -54.91243 3328 ft 199 kts 81°
2026-05-09 10:04 -2.44044 -54.89900 3080 ft 191 kts 81°
2026-05-09 10:04 -2.43843 -54.88606 2795 ft 184 kts 81°
2026-05-09 10:05 -2.43654 -54.87383 2547 ft 176 kts 81°
2026-05-09 10:05 -2.43473 -54.86216 2290 ft 164 kts 81°
2026-05-09 10:05 -2.43301 -54.85139 2037 ft 151 kts 80°
2026-05-09 10:05 -2.43118 -54.84104 1777 ft 150 kts 80°
2026-05-09 10:06 -2.42940 -54.83078 1522 ft 149 kts 80°
2026-05-09 10:06 -2.42765 -54.82067 1265 ft 145 kts 80°
2026-05-09 10:06 -2.42595 -54.81092 992 ft 139 kts 80°
2026-05-09 10:06 -2.42433 -54.80162 717 ft 134 kts 79°
2026-05-09 10:07 -2.42244 -54.79239 238 ft 140 kts 77°
2026-05-09 10:07 -2.42093 -54.78514 206 ft 44 kts 80°
2026-05-09 10:07 -2.42069 -54.78318 214 ft 19 kts 91°
2026-05-09 10:07 -2.42129 -54.78243 205 ft 21 kts 179°
2026-05-09 10:08 -2.42255 -54.78301 210 ft 12 kts 206°
2026-05-09 10:08 -2.42310 -54.78338 205 ft 3 kts 214°
2026-05-09 10:08 -2.42349 -54.78356 213 ft 7 kts 202°
2026-05-09 10:08 -2.42355 -54.78358 210 ft 0 kts 202°